Regional Weather Roundup
Issued by NWS

Home | Current Version | Previous Version | Graphics & Text | Print | Product List | Glossary On
Versions: 1 2 3 4 5 6 7 8 9 10 11 12 13 14 15 16 17 18 19 20 21 22 23 24 25 26 27 28 29 30 31 32 33 34 35 36 37 38 39 40 41 42 43 44 45 46 47 48 49 50
000
ASUS43 KLOT 270308
RWRIL

ILLINOIS REGIONAL WEATHER ROUNDUP
NATIONAL WEATHER SERVICE CHICAGO/ROMEOVILLE IL
1000 PM CDT SUN APR 26 2015

NOTE: "FAIR" INDICATES FEW OR NO CLOUDS BELOW 12,000 FEET WITH NO
SIGNIFICANT WEATHER AND/OR OBSTRUCTIONS TO VISIBILITY.

* THESE STATIONS ARE NOT UNDER NWS QUALITY CONTROL. THEY ALSO MAY NOT
  REPORT WEATHER SUCH AS PRECIPITATION OR FOG.

ILZ001-002-007-009-015-016-024-270400-
NORTHWEST ILLINOIS

CITY           SKY/WX    TMP DP  RH WIND       PRES   REMARKS
MOLINE         CLEAR     42  35  76 CALM      30.05R
STERLING*      CLEAR     46  34  61 N3        30.04R
SAVANNA*       CLEAR     46  35  65 CALM      30.04R
$$

ILZ003-004-008-010-011-017-018-270400-
NORTH CENTRAL ILLINOIS

CITY           SKY/WX    TMP DP  RH WIND       PRES   REMARKS
ROCKFORD       CLEAR     46  29  51 CALM      30.06R
FREEPORT*      CLEAR     41  30  64 W3        30.05R
ROCHELLE*      CLEAR     40  35  81 S3        30.04R
DE KALB*       CLEAR     42  29  59 CALM      30.04R
PERU*          CLEAR     47  31  53 E6        30.04S
$$

ILZ005-006-012>014-019>023-270400-
NORTHEAST ILLINOIS

CITY           SKY/WX    TMP DP  RH WIND       PRES   REMARKS
CHICAGO-OHARE  CLEAR     44  24  45 N12       30.03R
CHICAGO-MIDWAY PTCLDY    46  26  45 N9        30.03R
AURORA         CLEAR     43  27  53 CALM      30.04R
LANSING*       CLEAR     42  26  53 N7        30.02R
JOLIET*        CLEAR     46  28  48 N3        30.03R
WAUKEGAN       CLEAR     43  29  57 N8        30.03S
DUPAGE AIRPORT CLEAR     40  26  57 NE7       30.03R
KANKAKEE*      CLEAR     43  30  61 N3        30.03R
WHEELING       CLEAR     44  25  47 N6        30.05R
MORRIS*        CLEAR     44  30  59 CALM      30.00S
ROMEOVILLE*    CLEAR     40  27  59 NE7       30.03R
NORTHERLY ISL    N/A     45  29  53 N9          N/A
$$

LMZ740>746-270400-
SOUTHERN LAKE MICHIGAN

STATION/POSITION SKY/WX   TEMP    WIND        PRES    VSBY  WAVE
                          AIR SEA DIR/SP/G                  HT/PER
                          (F)     (DEG/KT/KT) (MB)    (MI)  (FT/S)
HARRISON CRIB              43     340/ 15/ 17   N/A
BURNHAM HARBOR             45     340/ 12/ 15   N/A
CALUMET HARBOR             44     330/  7/  9   N/A
BURNS HARBOR               44     350/  8/ 10 1016.6R
MICHIGAN CITY              42     360/  7/  9   N/A
MICHIGAN CITY 6N           42 45   20/  6/ 10   N/A           3/ 5
$$

ILZ025>027-034>036-040-047-049-050-058-095>099-270400-
WEST-CENTRAL ILLINOIS

CITY           SKY/WX    TMP DP  RH WIND       PRES   REMARKS
QUINCY         CLEAR     49  35  58 NE6       30.05R
GALESBURG*     CLEAR     43  36  77 CALM      30.04R
MACOMB*        CLEAR     45  39  78 CALM      30.07R
JACKSONVILLE*  CLEAR     49  37  62 NE6       30.04R
PITTSFIELD*    CLEAR     50  37  61 CALM      30.05R
$$

ILZ028>032-037-038-041>044-048-051>054-059>061-270400-
CENTRAL ILLINOIS

CITY           SKY/WX    TMP DP  RH WIND       PRES   REMARKS
PONTIAC        CLEAR     42  33  70 E5        30.03S
BLOOMINGTON    CLEAR     44  33  65 E5        30.04R
DECATUR        CLEAR     43  33  68 E3        30.03R
PEORIA         CLEAR     48  36  63 CALM      30.03R
LACON*         CLEAR     48  32  54 E7        30.04R
LINCOLN*       CLEAR     46  36  68 CALM      30.03R
SPRINGFIELD    CLEAR     47  36  65 CALM      30.03R
TAYLORVILLE    CLEAR     48  32  53 E7        30.03R
$$

ILZ033-039-045-046-055>057-062-063-270400-
EAST-CENTRAL ILLINOIS

CITY           SKY/WX    TMP DP  RH WIND       PRES   REMARKS
CHAMPAIGN      CLEAR     45  29  53 N8        30.02R
DANVILLE*      CLEAR     39  32  75 N8        29.99R WCI  34
RANTOUL*       CLEAR     45  32  60 N7        30.02R
MATTOON        CLEAR     43  34  70 N7        30.00R
PARIS*         CLEAR     45  33  63 N3        30.02R
$$

ILZ079-100>102-270400-
SOUTHWEST ILLINOIS

CITY           SKY/WX    TMP DP  RH WIND       PRES   REMARKS
ALTON          CLEAR     50  32  50 NE7       30.01S
BELLEVILLE     CLEAR     52  38  60 NE7       30.01R
CAHOKIA*       CLEAR     52  39  61 NE9       30.02R
SPARTA*        CLEAR     49  40  69 NE6       30.01R
$$

ILZ064>066-069>071-074>076-080>082-084>086-088>090-092>094-270400-
SOUTH-CENTRAL ILLINOIS

CITY           SKY/WX    TMP DP  RH WIND       PRES   REMARKS
CARBONDALE     CLEAR     53  38  56 N7        29.98R
CAIRO*         CLEAR     52  39  61 N5        29.96R
EFFINGHAM*     CLEAR     49  31  51 N3        30.03R
MARION         CLEAR     52  39  62 N5        29.99R
MT. VERNON     CLEAR     50  36  57 N3        30.00R
CENTRALIA*     CLEAR     51  36  56 N7        30.01R
SALEM*         CLEAR     52  38  59 N8        30.01R
METROPOLIS*    CLEAR     53  38  56 CALM      29.95R
$$

ILZ067-068-072-073-078-083-087-091-270400-
SOUTHEAST ILLINOIS

CITY           SKY/WX    TMP DP  RH WIND       PRES   REMARKS
LAWRENCEVILLE  CLEAR     49  38  65 N9        29.98R
FLORA*         CLEAR     49  38  64 N9        30.00R
FAIRFIELD*     CLEAR     51  38  61 N9        29.98R
HARRISBURG*    CLEAR     52  39  61 N7        29.98R
ROBINSON*      CLEAR     49  34  57 N8        30.00R
CARMI*         CLEAR     51  36  56 N9        29.96R
$$

ABBREVIATIONS USED IN REMARKS
   TC - TEMPERATURE IN CELSIUS
  WCI - WIND CHILL INDEX
   HX - HEAT INDEX
  VSB - VISIBILITY
$$



USA.gov is the U.S. government's official web portal to all federal, state and local government web resources and services.